| time (UTC) | temp F | wind direction | speed MPH | gust MPH | rain 1hr in | rain 24hr in | rain mn in | humidity % | barometer mb |
| 20260510024056 | 72 | 360 | 2.0 | 5.0 | 0.00 | 0.00 | 0.00 | 45 | 1014.1 |
| 20260510023554 | 72 | 319 | 1.0 | 5.0 | 0.00 | 0.00 | 0.00 | 44 | 1014.0 |
| 20260510023056 | 73 | 5 | 0.0 | 3.0 | 0.00 | 0.00 | 0.00 | 43 | 1014.1 |
| 20260510022558 | 73 | 0 | 1.0 | 5.0 | 0.00 | 0.00 | 0.00 | 43 | 1014.1 |
| 20260510022101 | 73 | 0 | 0.0 | 5.0 | 0.00 | 0.00 | 0.00 | 41 | 1014.1 |
| 20260510021600 | 73 | 344 | 1.0 | 4.0 | 0.00 | 0.00 | 0.00 | 41 | 1014.2 |
| 20260510021057 | 74 | 14 | 1.0 | 4.0 | 0.00 | 0.00 | 0.00 | 41 | 1014.1 |
| 20260510020554 | 74 | 11 | 0.0 | 4.0 | 0.00 | 0.00 | 0.00 | 42 | 1014.2 |
| 20260510020058 | 74 | 5 | 0.0 | 4.0 | 0.00 | 0.00 | 0.00 | 42 | 1014.2 |
| 20260510015558 | 74 | 301 | 0.0 | 4.0 | 0.00 | 0.00 | 0.00 | 41 | 1014.1 |
| 20260510015056 | 75 | 0 | 0.0 | 5.0 | 0.00 | 0.00 | 0.00 | 41 | 1014.2 |
| 20260510014555 | 75 | 0 | 1.0 | 6.0 | 0.00 | 0.00 | 0.00 | 41 | 1014.2 |
| 20260510014057 | 75 | 0 | 2.0 | 7.0 | 0.00 | 0.00 | 0.00 | 41 | 1014.3 |
| 20260510013554 | 75 | 16 | 2.0 | 7.0 | 0.00 | 0.00 | 0.00 | 40 | 1014.4 |
| 20260510013057 | 76 | 321 | 1.0 | 4.0 | 0.00 | 0.00 | 0.00 | 39 | 1014.5 |
| 20260510012558 | 76 | 0 | 1.0 | 5.0 | 0.00 | 0.00 | 0.00 | 38 | 1014.4 |
| 20260510012055 | 76 | 49 | 1.0 | 5.0 | 0.00 | 0.00 | 0.00 | 36 | 1014.4 |
| 20260510011602 | 77 | 352 | 1.0 | 6.0 | 0.00 | 0.00 | 0.00 | 33 | 1014.6 |
| 20260510011054 | 78 | 0 | 0.0 | 6.0 | 0.00 | 0.00 | 0.00 | 31 | 1014.5 |
| 20260510010553 | 78 | 323 | 1.0 | 3.0 | 0.00 | 0.00 | 0.00 | 30 | 1014.5 |
| 20260510010107 | 78 | 0 | 0.0 | 2.0 | 0.00 | 0.00 | 0.00 | 31 | 1014.5 |
| 20260510005553 | 77 | 0 | 1.0 | 4.0 | 0.00 | 0.00 | 0.00 | 31 | 1014.4 |
| 20260510005058 | 78 | 293 | 0.0 | 4.0 | 0.00 | 0.00 | 0.00 | 32 | 1014.6 |
| 20260510004601 | 78 | 13 | 1.0 | 5.0 | 0.00 | 0.00 | 0.00 | 31 | 1014.6 |
| 20260510004057 | 79 | 5 | 1.0 | 5.0 | 0.00 | 0.00 | 0.00 | 31 | 1014.7 |
| 20260510003557 | 79 | 309 | 0.0 | 5.0 | 0.00 | 0.00 | 0.00 | 32 | 1014.6 |
| 20260510003056 | 79 | 286 | 1.0 | 6.0 | 0.00 | 0.00 | 0.00 | 32 | 1014.6 |
| 20260510002557 | 79 | 346 | 1.0 | 7.0 | 0.00 | 0.00 | 0.00 | 31 | 1014.6 |
| 20260510002055 | 80 | 45 | 2.0 | 7.0 | 0.00 | 0.00 | 0.00 | 28 | 1014.6 |
| 20260510001556 | 80 | 5 | 1.0 | 5.0 | 0.00 | 0.00 | 0.00 | 30 | 1014.6 |
| 20260510001055 | 79 | 0 | 1.0 | 5.0 | 0.00 | 0.00 | 0.00 | 28 | 1014.6 |
| 20260510000556 | 79 | 348 | 1.0 | 5.0 | 0.00 | 0.00 | 0.00 | 29 | 1014.8 |
| 20260510000107 | 80 | 51 | 1.0 | 6.0 | 0.00 | 0.00 | 0.00 | 28 | 1014.7 |
| 20260509235554 | 80 | 333 | 3.0 | 6.0 | 0.00 | 0.00 | 0.00 | 31 | 1014.8 |
| 20260509235056 | 79 | 0 | 1.0 | 5.0 | 0.00 | 0.00 | 0.00 | 27 | 1014.9 |
| 20260509234601 | 80 | 57 | 1.0 | 5.0 | 0.00 | 0.00 | 0.00 | 28 | 1014.9 |
| 20260509234058 | 79 | 0 | 0.0 | 5.0 | 0.00 | 0.00 | 0.00 | 28 | 1015.0 |
| 20260509233558 | 79 | 314 | 2.0 | 5.0 | 0.00 | 0.00 | 0.00 | 29 | 1014.8 |
| 20260509233057 | 79 | 36 | 1.0 | 6.0 | 0.00 | 0.00 | 0.00 | 27 | 1014.9 |
| 20260509232557 | 78 | 25 | 1.0 | 8.0 | 0.00 | 0.00 | 0.00 | 28 | 1015.0 |
| 20260509232058 | 78 | 87 | 3.0 | 8.0 | 0.00 | 0.00 | 0.00 | 26 | 1014.9 |
| 20260509231555 | 79 | 34 | 2.0 | 8.0 | 0.00 | 0.00 | 0.00 | 27 | 1015.0 |
| 20260509231055 | 78 | 47 | 3.0 | 8.0 | 0.00 | 0.00 | 0.00 | 27 | 1015.1 |
| 20260509230557 | 78 | 352 | 2.0 | 7.0 | 0.00 | 0.00 | 0.00 | 28 | 1015.2 |
| 20260509230057 | 78 | 49 | 3.0 | 6.0 | 0.00 | 0.00 | 0.00 | 27 | 1015.3 |
| 20260509225555 | 78 | 51 | 2.0 | 5.0 | 0.00 | 0.00 | 0.00 | 28 | 1015.5 |
| 20260509225054 | 78 | 5 | 2.0 | 6.0 | 0.00 | 0.00 | 0.00 | 29 | 1015.7 |
| 20260509224554 | 78 | 73 | 2.0 | 8.0 | 0.00 | 0.00 | 0.00 | 30 | 1015.7 |
| 20260509224059 | 78 | 0 | 2.0 | 8.0 | 0.00 | 0.00 | 0.00 | 30 | 1015.8 |
| 20260509223555 | 78 | 58 | 2.0 | 7.0 | 0.00 | 0.00 | 0.00 | 31 | 1015.9 |
| 20260509223105 | 77 | 5 | 3.0 | 7.0 | 0.00 | 0.00 | 0.00 | 31 | 1015.9 |
| 20260509222559 | 78 | 323 | 2.0 | 5.0 | 0.00 | 0.00 | 0.00 | 33 | 1016.1 |
| 20260509222055 | 79 | 286 | 1.0 | 4.0 | 0.00 | 0.00 | 0.00 | 34 | 1016.2 |
| 20260509221556 | 78 | 5 | 0.0 | 6.0 | 0.00 | 0.00 | 0.00 | 36 | 1016.3 |
| 20260509221056 | 78 | 314 | 1.0 | 7.0 | 0.00 | 0.00 | 0.00 | 36 | 1016.3 |
| 20260509220555 | 77 | 15 | 3.0 | 7.0 | 0.00 | 0.00 | 0.00 | 35 | 1016.3 |
| 20260509220100 | 78 | 300 | 1.0 | 4.0 | 0.00 | 0.00 | 0.00 | 36 | 1016.4 |
| 20260509215555 | 77 | 325 | 1.0 | 7.0 | 0.00 | 0.00 | 0.00 | 35 | 1016.5 |
| 20260509215058 | 76 | 342 | 2.0 | 7.0 | 0.00 | 0.00 | 0.00 | 37 | 1016.5 |
| 20260509214557 | 76 | 34 | 1.0 | 5.0 | 0.00 | 0.00 | 0.00 | 37 | 1016.6 |
| 20260509214057 | 75 | 61 | 1.0 | 5.0 | 0.00 | 0.00 | 0.00 | 36 | 1016.7 |
| 20260509213554 | 75 | 339 | 0.0 | 10.0 | 0.00 | 0.00 | 0.00 | 41 | 1016.8 |
| 20260509213058 | 74 | 0 | 2.0 | 10.0 | 0.00 | 0.00 | 0.00 | 41 | 1016.8 |
| 20260509212556 | 76 | 44 | 2.0 | 6.0 | 0.00 | 0.00 | 0.00 | 39 | 1016.8 |
| 20260509212057 | 76 | 32 | 1.0 | 6.0 | 0.00 | 0.00 | 0.00 | 43 | 1016.9 |
| 20260509211555 | 74 | 360 | 2.0 | 7.0 | 0.00 | 0.00 | 0.00 | 43 | 1016.9 |
| 20260509211055 | 75 | 5 | 2.0 | 7.0 | 0.00 | 0.00 | 0.00 | 41 | 1016.9 |
| 20260509210556 | 75 | 341 | 2.0 | 5.0 | 0.00 | 0.00 | 0.00 | 42 | 1016.9 |
| 20260509210106 | 76 | 292 | 1.0 | 6.0 | 0.00 | 0.00 | 0.00 | 43 | 1016.9 |
| 20260509205554 | 75 | 288 | 0.0 | 8.0 | 0.00 | 0.00 | 0.00 | 45 | 1016.9 |
| 20260509205054 | 74 | 9 | 3.0 | 8.0 | 0.00 | 0.00 | 0.00 | 46 | 1016.9 |
| 20260509204602 | 74 | 319 | 2.0 | 5.0 | 0.00 | 0.00 | 0.00 | 45 | 1016.9 |
| 20260509204055 | 74 | 29 | 2.0 | 11.0 | 0.00 | 0.00 | 0.00 | 45 | 1016.9 |
| 20260509203554 | 73 | 53 | 1.0 | 11.0 | 0.00 | 0.00 | 0.00 | 46 | 1016.9 |
| 20260509203059 | 73 | 330 | 2.0 | 9.0 | 0.00 | 0.00 | 0.00 | 48 | 1017.0 |
| 20260509202557 | 75 | 271 | 1.0 | 9.0 | 0.00 | 0.00 | 0.00 | 46 | 1017.1 |
| 20260509202056 | 74 | 20 | 1.0 | 6.0 | 0.00 | 0.00 | 0.00 | 47 | 1017.1 |
| 20260509201611 | 73 | 310 | 2.0 | 7.0 | 0.00 | 0.00 | 0.00 | 49 | 1017.1 |
| 20260509201100 | 73 | 301 | 2.0 | 11.0 | 0.00 | 0.00 | 0.00 | 46 | 1017.2 |
| 20260509200557 | 73 | 0 | 2.0 | 11.0 | 0.00 | 0.00 | 0.00 | 50 | 1017.4 |
| 20260509200108 | 72 | 200 | 3.0 | 11.0 | 0.00 | 0.00 | 0.00 | 52 | 1017.6 |
| 20260509195600 | 72 | 0 | 2.0 | 11.0 | 0.00 | 0.00 | 0.00 | 52 | 1017.6 |
| 20260509195057 | 72 | 337 | 2.0 | 7.0 | 0.00 | 0.00 | 0.00 | 51 | 1017.6 |
| 20260509194557 | 73 | 203 | 1.0 | 6.0 | 0.00 | 0.00 | 0.00 | 50 | 1017.7 |
| 20260509194055 | 72 | 0 | 1.0 | 8.0 | 0.00 | 0.00 | 0.00 | 54 | 1017.8 |
| 20260509193555 | 71 | 319 | 2.0 | 9.0 | 0.00 | 0.00 | 0.00 | 53 | 1017.9 |
| 20260509193058 | 71 | 31 | 1.0 | 9.0 | 0.00 | 0.00 | 0.00 | 54 | 1017.9 |
| 20260509192557 | 71 | 298 | 2.0 | 9.0 | 0.00 | 0.00 | 0.00 | 55 | 1018.0 |
| 20260509192054 | 70 | 349 | 3.0 | 9.0 | 0.00 | 0.00 | 0.00 | 55 | 1018.1 |
| 20260509191556 | 71 | 320 | 1.0 | 8.0 | 0.00 | 0.00 | 0.00 | 55 | 1018.1 |
| 20260509191057 | 69 | 98 | 2.0 | 9.0 | 0.00 | 0.00 | 0.00 | 57 | 1018.1 |
| 20260509190557 | 69 | 314 | 3.0 | 9.0 | 0.00 | 0.00 | 0.00 | 58 | 1018.2 |
| 20260509190057 | 68 | 5 | 2.0 | 8.0 | 0.00 | 0.00 | 0.00 | 59 | 1018.1 |
| 20260509185555 | 69 | 294 | 2.0 | 5.0 | 0.00 | 0.00 | 0.00 | 58 | 1018.3 |
| 20260509185055 | 70 | 352 | 1.0 | 5.0 | 0.00 | 0.00 | 0.00 | 58 | 1018.5 |
| 20260509184608 | 70 | 328 | 1.0 | 5.0 | 0.00 | 0.00 | 0.00 | 58 | 1018.5 |
| 20260509184055 | 69 | 0 | 1.0 | 10.0 | 0.00 | 0.00 | 0.00 | 59 | 1018.7 |
| 20260509183556 | 67 | 25 | 2.0 | 10.0 | 0.00 | 0.00 | 0.00 | 60 | 1018.8 |
| 20260509183058 | 68 | 318 | 2.0 | 7.0 | 0.00 | 0.00 | 0.00 | 61 | 1018.7 |
| 20260509182555 | 68 | 43 | 2.0 | 6.0 | 0.00 | 0.00 | 0.00 | 61 | 1018.8 |
| 20260509182054 | 67 | 54 | 2.0 | 9.0 | 0.00 | 0.00 | 0.00 | 59 | 1018.9 |
| 20260509181619 | 68 | 0 | 1.0 | 9.0 | 0.00 | 0.00 | 0.00 | 61 | 1018.8 |
| 20260509181058 | 66 | 5 | 2.0 | 8.0 | 0.00 | 0.00 | 0.00 | 63 | 1018.9 |
| 20260509180555 | 67 | 5 | 2.0 | 8.0 | 0.00 | 0.00 | 0.00 | 63 | 1018.8 |
| 20260509180058 | 65 | 336 | 2.0 | 7.0 | 0.00 | 0.00 | 0.00 | 65 | 1018.9 |
| 20260509175554 | 65 | 9 | 2.0 | 7.0 | 0.00 | 0.00 | 0.00 | 66 | 1018.8 |
| 20260509175054 | 65 | 350 | 3.0 | 7.0 | 0.00 | 0.00 | 0.00 | 65 | 1018.9 |
| 20260509174559 | 65 | 19 | 2.0 | 8.0 | 0.00 | 0.00 | 0.00 | 66 | 1018.9 |
| 20260509174058 | 64 | 11 | 2.0 | 8.0 | 0.00 | 0.00 | 0.00 | 67 | 1019.1 |
| 20260509173557 | 63 | 347 | 1.0 | 8.0 | 0.00 | 0.00 | 0.00 | 69 | 1019.2 |
| 20260509173104 | 63 | 317 | 2.0 | 7.0 | 0.00 | 0.00 | 0.00 | 69 | 1019.2 |
| 20260509172558 | 64 | 324 | 1.0 | 5.0 | 0.00 | 0.00 | 0.00 | 69 | 1019.3 |
| 20260509172100 | 63 | 28 | 1.0 | 8.0 | 0.00 | 0.00 | 0.00 | 69 | 1019.4 |
| 20260509171600 | 62 | 13 | 3.0 | 8.0 | 0.00 | 0.00 | 0.00 | 71 | 1019.5 |
| 20260509171057 | 61 | 5 | 3.0 | 8.0 | 0.00 | 0.00 | 0.00 | 71 | 1019.5 |
| 20260509170558 | 61 | 33 | 3.0 | 9.0 | 0.00 | 0.00 | 0.00 | 71 | 1019.7 |
| 20260509170059 | 61 | 70 | 3.0 | 9.0 | 0.00 | 0.00 | 0.00 | 72 | 1019.6 |
| 20260509165554 | 60 | 344 | 3.0 | 9.0 | 0.00 | 0.00 | 0.00 | 73 | 1019.5 |
| 20260509165058 | 61 | 34 | 3.0 | 9.0 | 0.00 | 0.00 | 0.00 | 73 | 1019.7 |
| 20260509164557 | 61 | 94 | 3.0 | 8.0 | 0.00 | 0.00 | 0.00 | 74 | 1019.8 |
| 20260509164058 | 60 | 80 | 3.0 | 8.0 | 0.00 | 0.00 | 0.00 | 74 | 1019.9 |
| 20260509163602 | 60 | 5 | 3.0 | 8.0 | 0.00 | 0.00 | 0.00 | 75 | 1020.0 |
| 20260509163102 | 59 | 5 | 2.0 | 7.0 | 0.00 | 0.00 | 0.00 | 75 | 1020.0 |
| 20260509162559 | 59 | 348 | 3.0 | 7.0 | 0.00 | 0.00 | 0.00 | 75 | 1020.2 |
| 20260509162057 | 59 | 5 | 2.0 | 7.0 | 0.00 | 0.00 | 0.00 | 77 | 1020.3 |
| 20260509161604 | 58 | 0 | 2.0 | 7.0 | 0.00 | 0.00 | 0.00 | 78 | 1020.3 |
| 20260509161055 | 58 | 196 | 0.0 | 5.0 | 0.00 | 0.00 | 0.00 | 78 | 1020.4 |
| 20260509160602 | 58 | 9 | 1.0 | 5.0 | 0.00 | 0.00 | 0.00 | 78 | 1020.4 |
| 20260509160055 | 57 | 314 | 2.0 | 5.0 | 0.00 | 0.00 | 0.00 | 79 | 1020.4 |
| 20260509155554 | 57 | 40 | 1.0 | 5.0 | 0.00 | 0.00 | 0.00 | 78 | 1020.3 |
| 20260509155056 | 57 | 0 | 2.0 | 7.0 | 0.00 | 0.00 | 0.00 | 80 | 1020.3 |
| 20260509154555 | 57 | 334 | 2.0 | 7.0 | 0.00 | 0.00 | 0.00 | 81 | 1020.3 |
| 20260509154058 | 56 | 86 | 3.0 | 8.0 | 0.00 | 0.00 | 0.00 | 81 | 1020.3 |
| 20260509153555 | 56 | 46 | 3.0 | 8.0 | 0.00 | 0.00 | 0.00 | 81 | 1020.3 |
| 20260509153056 | 56 | 22 | 1.0 | 4.0 | 0.00 | 0.00 | 0.00 | 82 | 1020.4 |
| 20260509152555 | 56 | 5 | 1.0 | 6.0 | 0.00 | 0.00 | 0.00 | 83 | 1020.6 |
| 20260509152056 | 55 | 350 | 2.0 | 9.0 | 0.00 | 0.00 | 0.00 | 84 | 1020.6 |
| 20260509151603 | 54 | 36 | 2.0 | 9.0 | 0.00 | 0.00 | 0.00 | 84 | 1020.7 |
| 20260509151055 | 54 | 55 | 4.0 | 9.0 | 0.00 | 0.00 | 0.00 | 84 | 1020.8 |
| 20260509150555 | 54 | 47 | 2.0 | 8.0 | 0.00 | 0.00 | 0.00 | 85 | 1020.8 |
| 20260509150055 | 54 | 42 | 2.0 | 5.0 | 0.00 | 0.00 | 0.00 | 86 | 1020.9 |
| 20260509145556 | 53 | 360 | 2.0 | 6.0 | 0.00 | 0.00 | 0.00 | 86 | 1021.0 |
| 20260509145058 | 53 | 352 | 2.0 | 8.0 | 0.00 | 0.00 | 0.00 | 87 | 1020.9 |
| 20260509144607 | 53 | 14 | 1.0 | 8.0 | 0.00 | 0.00 | 0.00 | 87 | 1020.8 |
| 20260509144100 | 53 | 46 | 2.0 | 5.0 | 0.00 | 0.00 | 0.00 | 88 | 1020.7 |
| 20260509143555 | 53 | 360 | 1.0 | 5.0 | 0.00 | 0.00 | 0.00 | 88 | 1020.7 |
| 20260509143119 | 52 | 0 | 3.0 | 5.0 | 0.00 | 0.00 | 0.00 | 89 | 1020.6 |
| 20260509142554 | 52 | 337 | 1.0 | 5.0 | 0.00 | 0.00 | 0.00 | 89 | 1020.8 |
| 20260509142100 | 52 | 5 | 1.0 | 4.0 | 0.00 | 0.00 | 0.00 | 89 | 1020.8 |
| 20260509141557 | 52 | 5 | 1.0 | 4.0 | 0.00 | 0.00 | 0.00 | 90 | 1020.8 |
| 20260509141056 | 51 | 28 | 1.0 | 4.0 | 0.00 | 0.00 | 0.00 | 90 | 1020.7 |
| 20260509140555 | 51 | 10 | 1.0 | 4.0 | 0.00 | 0.00 | 0.00 | 91 | 1020.7 |
| 20260509140105 | 51 | 38 | 1.0 | 4.0 | 0.00 | 0.00 | 0.00 | 91 | 1020.7 |
| 20260509135558 | 50 | 59 | 2.0 | 4.0 | 0.00 | 0.00 | 0.00 | 91 | 1020.7 |
| 20260509135059 | 50 | 53 | 1.0 | 4.0 | 0.00 | 0.00 | 0.00 | 92 | 1020.7 |
| 20260509134612 | 50 | 22 | 1.0 | 4.0 | 0.00 | 0.00 | 0.00 | 92 | 1020.6 |
| 20260509134055 | 50 | 34 | 1.0 | 4.0 | 0.00 | 0.00 | 0.00 | 92 | 1020.6 |
| 20260509133555 | 50 | 13 | 1.0 | 4.0 | 0.00 | 0.00 | 0.00 | 92 | 1020.5 |
| 20260509133057 | 50 | 44 | 1.0 | 4.0 | 0.00 | 0.00 | 0.00 | 93 | 1020.5 |
| 20260509132557 | 49 | 0 | 1.0 | 3.0 | 0.00 | 0.00 | 0.00 | 93 | 1020.5 |
| 20260509132058 | 49 | 11 | 0.0 | 1.0 | 0.00 | 0.00 | 0.00 | 93 | 1020.5 |
| 20260509131556 | 49 | 11 | 0.0 | 2.0 | 0.00 | 0.00 | 0.00 | 93 | 1020.5 |
| 20260509131054 | 49 | 0 | 0.0 | 3.0 | 0.00 | 0.00 | 0.00 | 92 | 1020.6 |
| 20260509130558 | 49 | 11 | 0.0 | 3.0 | 0.00 | 0.00 | 0.00 | 92 | 1020.6 |
| 20260509125555 | 49 | 29 | 1.0 | 4.0 | 0.00 | 0.00 | 0.00 | 93 | 1020.5 |
| 20260509125054 | 49 | 17 | 2.0 | 4.0 | 0.00 | 0.00 | 0.00 | 93 | 1020.5 |
| 20260509124557 | 49 | 21 | 0.0 | 2.0 | 0.00 | 0.00 | 0.00 | 93 | 1020.6 |
| 20260509124054 | 49 | 0 | 0.0 | 0.0 | 0.00 | 0.00 | 0.00 | 92 | 1020.9 |
| 20260509123555 | 49 | 0 | 0.0 | 0.0 | 0.00 | 0.00 | 0.00 | 92 | 1020.8 |
| 20260509123131 | 49 | 0 | 0.0 | 0.0 | 0.00 | 0.00 | 0.00 | 92 | 1020.8 |
| 20260509122557 | 49 | 0 | 0.0 | 0.0 | 0.00 | 0.00 | 0.00 | 92 | 1020.8 |
| 20260509122057 | 49 | 0 | 0.0 | 0.0 | 0.00 | 0.00 | 0.00 | 92 | 1020.8 |
| 20260509121611 | 49 | 0 | 0.0 | 0.0 | 0.00 | 0.00 | 0.00 | 91 | 1020.8 |
| 20260509121055 | 49 | 0 | 0.0 | 0.0 | 0.00 | 0.00 | 0.00 | 92 | 1020.7 |
| 20260509120554 | 49 | 0 | 0.0 | 0.0 | 0.00 | 0.00 | 0.00 | 91 | 1020.5 |
| 20260509120114 | 49 | 0 | 0.0 | 0.0 | 0.00 | 0.00 | 0.00 | 91 | 1020.6 |
| 20260509115557 | 49 | 0 | 0.0 | 0.0 | 0.00 | 0.00 | 0.00 | 91 | 1020.7 |
| 20260509115054 | 49 | 0 | 0.0 | 0.0 | 0.00 | 0.00 | 0.00 | 91 | 1020.7 |
| 20260509114602 | 49 | 0 | 0.0 | 0.0 | 0.00 | 0.00 | 0.00 | 90 | 1020.9 |
| 20260509114058 | 50 | 0 | 0.0 | 0.0 | 0.00 | 0.00 | 0.00 | 90 | 1020.7 |
| 20260509113556 | 50 | 0 | 0.0 | 3.0 | 0.00 | 0.00 | 0.00 | 90 | 1020.8 |
| 20260509113101 | 50 | 0 | 0.0 | 3.0 | 0.00 | 0.00 | 0.00 | 89 | 1020.8 |
| 20260509112557 | 51 | 17 | 1.0 | 3.0 | 0.00 | 0.00 | 0.00 | 89 | 1020.9 |
| 20260509112057 | 51 | 11 | 1.0 | 3.0 | 0.00 | 0.00 | 0.00 | 89 | 1020.9 |
| 20260509111607 | 51 | 15 | 1.0 | 3.0 | 0.00 | 0.00 | 0.00 | 89 | 1021.0 |
| 20260509111057 | 51 | 10 | 0.0 | 3.0 | 0.00 | 0.00 | 0.00 | 89 | 1021.2 |
| 20260509110557 | 51 | 15 | 1.0 | 3.0 | 0.00 | 0.00 | 0.00 | 89 | 1021.1 |
| 20260509110109 | 51 | 22 | 0.0 | 3.0 | 0.00 | 0.00 | 0.00 | 89 | 1021.2 |
| 20260509105557 | 51 | 22 | 0.0 | 3.0 | 0.00 | 0.00 | 0.00 | 89 | 1021.3 |
| 20260509105057 | 51 | 0 | 0.0 | 3.0 | 0.00 | 0.00 | 0.00 | 88 | 1021.3 |
| 20260509104559 | 51 | 0 | 0.0 | 3.0 | 0.00 | 0.00 | 0.00 | 88 | 1021.3 |
| 20260509104053 | 51 | 0 | 0.0 | 3.0 | 0.00 | 0.00 | 0.00 | 88 | 1021.3 |
| 20260509103556 | 51 | 0 | 0.0 | 3.0 | 0.00 | 0.00 | 0.00 | 88 | 1021.2 |
| 20260509103104 | 51 | 0 | 0.0 | 2.0 | 0.00 | 0.00 | 0.00 | 88 | 1021.1 |
| 20260509102558 | 51 | 0 | 0.0 | 1.0 | 0.00 | 0.00 | 0.00 | 87 | 1021.1 |
| 20260509102058 | 51 | 0 | 0.0 | 2.0 | 0.00 | 0.00 | 0.00 | 87 | 1021.2 |
| 20260509101623 | 51 | 0 | 0.0 | 2.0 | 0.00 | 0.00 | 0.00 | 86 | 1021.3 |
| 20260509101058 | 52 | 0 | 0.0 | 3.0 | 0.00 | 0.00 | 0.00 | 85 | 1021.2 |
| 20260509100558 | 52 | 16 | 0.0 | 3.0 | 0.00 | 0.00 | 0.00 | 85 | 1021.2 |
| 20260509100059 | 52 | 15 | 1.0 | 3.0 | 0.00 | 0.00 | 0.00 | 85 | 1021.3 |
| 20260509095558 | 52 | 18 | 1.0 | 5.0 | 0.00 | 0.00 | 0.00 | 85 | 1021.3 |
| 20260509095057 | 52 | 21 | 1.0 | 5.0 | 0.00 | 0.00 | 0.00 | 85 | 1021.4 |
| 20260509094603 | 52 | 11 | 1.0 | 3.0 | 0.00 | 0.00 | 0.00 | 85 | 1021.4 |
| 20260509094054 | 52 | 14 | 1.0 | 3.0 | 0.00 | 0.00 | 0.00 | 85 | 1021.4 |
| 20260509093554 | 53 | 360 | 1.0 | 4.0 | 0.00 | 0.00 | 0.00 | 85 | 1021.5 |
| 20260509093105 | 53 | 35 | 1.0 | 4.0 | 0.00 | 0.00 | 0.00 | 85 | 1021.5 |
| 20260509092554 | 53 | 24 | 2.0 | 4.0 | 0.00 | 0.00 | 0.00 | 85 | 1021.5 |
| 20260509092053 | 52 | 352 | 2.0 | 7.0 | 0.00 | 0.00 | 0.00 | 85 | 1021.4 |
| 20260509091602 | 52 | 348 | 2.0 | 7.0 | 0.00 | 0.00 | 0.00 | 85 | 1021.5 |
| 20260509091054 | 52 | 44 | 1.0 | 3.0 | 0.00 | 0.00 | 0.00 | 85 | 1021.6 |
| 20260509090554 | 52 | 51 | 1.0 | 2.0 | 0.00 | 0.00 | 0.00 | 85 | 1021.6 |
| 20260509085553 | 53 | 51 | 1.0 | 3.0 | 0.00 | 0.00 | 0.00 | 84 | 1021.7 |
| 20260509085053 | 53 | 46 | 0.0 | 2.0 | 0.00 | 0.00 | 0.00 | 84 | 1021.7 |
| 20260509084554 | 53 | 0 | 0.0 | 1.0 | 0.00 | 0.00 | 0.00 | 84 | 1021.7 |
| 20260509084053 | 53 | 46 | 0.0 | 1.0 | 0.00 | 0.00 | 0.00 | 84 | 1021.7 |
| 20260509083552 | 53 | 0 | 0.0 | 2.0 | 0.00 | 0.00 | 0.00 | 83 | 1021.7 |
| 20260509083055 | 53 | 0 | 0.0 | 4.0 | 0.00 | 0.00 | 0.00 | 82 | 1021.8 |
| 20260509082554 | 54 | 0 | 1.0 | 4.0 | 0.00 | 0.00 | 0.00 | 82 | 1021.8 |
| 20260509082054 | 54 | 13 | 1.0 | 4.0 | 0.00 | 0.00 | 0.00 | 82 | 1021.9 |
| 20260509081606 | 54 | 360 | 1.0 | 4.0 | 0.00 | 0.00 | 0.00 | 81 | 1021.9 |
| 20260509081054 | 54 | 20 | 1.0 | 4.0 | 0.00 | 0.00 | 0.00 | 81 | 1022.0 |
| 20260509080553 | 54 | 13 | 1.0 | 4.0 | 0.00 | 0.00 | 0.00 | 81 | 1022.1 |
| 20260509080055 | 54 | 5 | 0.0 | 2.0 | 0.00 | 0.00 | 0.00 | 81 | 1022.1 |
| 20260509075553 | 54 | 0 | 0.0 | 3.0 | 0.00 | 0.00 | 0.00 | 81 | 1022.1 |
| 20260509075056 | 54 | 0 | 0.0 | 4.0 | 0.00 | 0.00 | 0.00 | 80 | 1022.1 |
| 20260509074559 | 54 | 26 | 0.0 | 5.0 | 0.00 | 0.00 | 0.00 | 80 | 1022.1 |
| 20260509074056 | 54 | 15 | 1.0 | 5.0 | 0.00 | 0.00 | 0.00 | 80 | 1022.0 |
| 20260509073557 | 55 | 15 | 0.0 | 1.0 | 0.00 | 0.00 | 0.00 | 80 | 1022.0 |
| 20260509073105 | 55 | 5 | 0.0 | 4.0 | 0.00 | 0.00 | 0.00 | 80 | 1022.1 |
| 20260509072557 | 55 | 0 | 0.0 | 5.0 | 0.00 | 0.00 | 0.00 | 79 | 1022.0 |
| 20260509072057 | 55 | 17 | 0.0 | 5.0 | 0.00 | 0.00 | 0.00 | 79 | 1022.0 |
| 20260509071602 | 55 | 360 | 1.0 | 4.0 | 0.00 | 0.00 | 0.00 | 79 | 1022.1 |
| 20260509071054 | 55 | 5 | 0.0 | 2.0 | 0.00 | 0.00 | 0.00 | 78 | 1022.1 |
| 20260509070554 | 56 | 14 | 0.0 | 3.0 | 0.00 | 0.00 | 0.00 | 78 | 1022.0 |
| 20260509070057 | 56 | 14 | 1.0 | 3.0 | 0.00 | 0.00 | 0.00 | 77 | 1022.1 |
| 20260509065553 | 56 | 0 | 1.0 | 4.0 | 0.00 | 0.00 | 0.00 | 76 | 1022.1 |
| 20260509065053 | 56 | 5 | 1.0 | 5.0 | 0.00 | 0.00 | 0.00 | 76 | 1022.0 |
| 20260509064616 | 57 | 9 | 2.0 | 5.0 | 0.00 | 0.00 | 0.00 | 76 | 1022.0 |
| 20260509064058 | 57 | 352 | 2.0 | 5.0 | 0.00 | 0.00 | 0.00 | 75 | 1022.0 |
| 20260509063557 | 57 | 352 | 1.0 | 5.0 | 0.00 | 0.00 | 0.00 | 76 | 1022.0 |
| 20260509063055 | 57 | 13 | 1.0 | 5.0 | 0.00 | 0.00 | 0.00 | 75 | 1022.0 |
| 20260509062554 | 57 | 13 | 1.0 | 5.0 | 0.00 | 0.00 | 0.00 | 75 | 1021.9 |
| 20260509062054 | 57 | 0 | 1.0 | 5.0 | 0.00 | 0.00 | 0.00 | 74 | 1021.9 |
| 20260509061556 | 57 | 14 | 1.0 | 5.0 | 0.00 | 0.00 | 0.00 | 74 | 1021.8 |
| 20260509061058 | 57 | 17 | 1.0 | 4.0 | 0.00 | 0.00 | 0.00 | 73 | 1021.7 |
| 20260509060554 | 58 | 10 | 1.0 | 4.0 | 0.00 | 0.00 | 0.00 | 73 | 1021.7 |
| 20260509060057 | 58 | 11 | 1.0 | 4.0 | 0.00 | 0.00 | 0.00 | 72 | 1021.8 |
| 20260509055554 | 58 | 5 | 1.0 | 4.0 | 0.00 | 0.00 | 0.00 | 72 | 1021.7 |
| 20260509055057 | 58 | 0 | 0.0 | 4.0 | 0.00 | 0.00 | 0.00 | 72 | 1021.7 |
| 20260509054603 | 59 | 11 | 2.0 | 6.0 | 0.00 | 0.00 | 0.00 | 71 | 1021.7 |
| 20260509054057 | 59 | 24 | 2.0 | 6.0 | 0.00 | 0.00 | 0.00 | 71 | 1021.6 |
| 20260509053558 | 59 | 327 | 1.0 | 4.0 | 0.00 | 0.00 | 0.00 | 71 | 1021.7 |
| 20260509053105 | 59 | 21 | 1.0 | 9.0 | 0.00 | 0.00 | 0.00 | 70 | 1021.6 |
| 20260509052558 | 59 | 17 | 2.0 | 9.0 | 0.00 | 0.00 | 0.00 | 70 | 1021.6 |
| 20260509052057 | 60 | 0 | 1.0 | 4.0 | 0.00 | 0.00 | 0.00 | 69 | 1021.6 |
| 20260509051559 | 60 | 5 | 0.0 | 3.0 | 0.00 | 0.00 | 0.00 | 69 | 1021.5 |
| 20260509051054 | 60 | 5 | 0.0 | 4.0 | 0.00 | 0.00 | 0.00 | 69 | 1021.4 |
| 20260509050601 | 60 | 9 | 1.0 | 5.0 | 0.00 | 0.00 | 0.00 | 68 | 1021.5 |
| 20260509050058 | 60 | 11 | 1.0 | 5.0 | 0.00 | 0.00 | 0.00 | 68 | 1021.4 |
| 20260509045554 | 61 | 10 | 2.0 | 5.0 | 0.00 | 0.00 | 0.00 | 67 | 1021.4 |
| 20260509045058 | 61 | 346 | 2.0 | 8.0 | 0.00 | 0.00 | 0.00 | 67 | 1021.4 |
| 20260509044554 | 61 | 22 | 2.0 | 8.0 | 0.00 | 0.00 | 0.00 | 67 | 1021.3 |
| 20260509044056 | 61 | 11 | 1.0 | 3.0 | 0.00 | 0.00 | 0.00 | 67 | 1021.3 |
| 20260509043556 | 61 | 0 | 0.0 | 3.0 | 0.00 | 0.00 | 0.00 | 66 | 1021.3 |
| 20260509043100 | 61 | 0 | 0.0 | 4.0 | 0.00 | 0.00 | 0.00 | 66 | 1021.2 |
| 20260509042555 | 62 | 355 | 1.0 | 5.0 | 0.00 | 0.00 | 0.00 | 65 | 1021.2 |
| 20260509042057 | 62 | 5 | 1.0 | 8.0 | 0.00 | 0.00 | 0.00 | 64 | 1021.2 |
| 20260509041619 | 62 | 0 | 0.0 | 8.0 | 0.00 | 0.00 | 0.00 | 63 | 1021.1 |
| 20260509041058 | 63 | 0 | 3.0 | 8.0 | 0.00 | 0.00 | 0.00 | 62 | 1021.1 |
| 20260509040557 | 63 | 25 | 2.0 | 6.0 | 0.00 | 0.00 | 0.00 | 62 | 1021.1 |
| 20260509040056 | 63 | 37 | 1.0 | 6.0 | 0.00 | 0.00 | 0.00 | 61 | 1021.1 |
| 20260509035557 | 63 | 11 | 2.0 | 5.0 | 0.00 | 0.00 | 0.00 | 61 | 1021.0 |
| 20260509035058 | 63 | 27 | 1.0 | 6.0 | 0.00 | 0.00 | 0.00 | 61 | 1021.1 |
| 20260509034555 | 63 | 59 | 2.0 | 7.0 | 0.00 | 0.00 | 0.00 | 60 | 1020.9 |
| 20260509034055 | 63 | 10 | 2.0 | 8.0 | 0.00 | 0.00 | 0.00 | 59 | 1020.8 |
| 20260509033555 | 64 | 84 | 2.0 | 8.0 | 0.00 | 0.00 | 0.00 | 59 | 1020.8 |
| 20260509033115 | 64 | 49 | 0.0 | 5.0 | 0.00 | 0.00 | 0.00 | 59 | 1020.8 |
| 20260509032553 | 64 | 17 | 0.0 | 5.0 | 0.00 | 0.00 | 0.00 | 58 | 1020.7 |
| 20260509032055 | 64 | 0 | 1.0 | 5.0 | 0.00 | 0.00 | 0.00 | 58 | 1020.7 |
| 20260509031555 | 64 | 0 | 1.0 | 5.0 | 0.00 | 0.00 | 0.00 | 57 | 1020.5 |
| 20260509031058 | 65 | 9 | 0.0 | 4.0 | 0.00 | 0.00 | 0.00 | 57 | 1020.6 |
| 20260509030554 | 65 | 13 | 1.0 | 4.0 | 0.00 | 0.00 | 0.00 | 56 | 1020.5 |
| 20260509030058 | 65 | 0 | 0.0 | 2.0 | 0.00 | 0.00 | 0.00 | 57 | 1020.5 |
| 20260509025557 | 65 | 234 | 0.0 | 2.0 | 0.00 | 0.00 | 0.00 | 56 | 1020.5 |
| 20260509025054 | 65 | 234 | 0.0 | 1.0 | 0.00 | 0.00 | 0.00 | 57 | 1020.5 |
| 20260509024554 | 65 | 0 | 0.0 | 2.0 | 0.00 | 0.00 | 0.00 | 56 | 1020.4 |